timestamp,NAME,ROUTE_ID,STOP_ID,TRIP_ID
2019-09-23 17:40:00+05:30,2,2,2,2
2019-09-23 17:50:00+05:30,2,2,2,2
2019-09-23 18:00:00+05:30,9,9,9,9
2019-09-23 18:10:00+05:30,52,40,86,54
2019-09-23 18:20:00+05:30,50,39,83,51
2019-09-23 18:30:00+05:30,50,39,77,51
2019-09-23 18:40:00+05:30,48,37,80,49
2019-09-23 18:50:00+05:30,51,40,86,51
2019-09-23 19:00:00+05:30,50,39,83,50
2019-09-23 19:10:00+05:30,49,38,88,50
2019-09-23 19:20:00+05:30,48,38,87,49
2019-09-23 19:30:00+05:30,52,41,80,53
2019-09-23 19:40:00+05:30,49,39,66,50
2019-09-23 19:50:00+05:30,45,36,62,45
2019-09-23 20:00:00+05:30,43,34,58,43
2019-09-23 20:10:00+05:30,42,33,59,42
2019-09-23 20:20:00+05:30,42,33,69,43
2019-09-23 20:30:00+05:30,42,31,62,42
2019-09-23 20:40:00+05:30,38,29,54,39
2019-09-23 20:50:00+05:30,37,29,66,38
2019-09-23 21:00:00+05:30,38,31,82,38
2019-09-23 21:10:00+05:30,38,31,70,38
2019-09-23 21:20:00+05:30,40,32,64,40
2019-09-23 21:30:00+05:30,37,30,45,37
2019-09-23 21:40:00+05:30,36,29,39,36
2019-09-23 21:50:00+05:30,34,29,34,34
2019-09-23 22:00:00+05:30,35,29,39,35
2019-09-23 22:10:00+05:30,33,26,34,33
2019-09-23 22:20:00+05:30,28,22,27,28
2019-09-23 22:30:00+05:30,29,22,33,29
2019-09-23 22:40:00+05:30,32,24,39,32
2019-09-23 22:50:00+05:30,30,23,30,30
2019-09-23 23:00:00+05:30,30,25,35,31
2019-09-23 23:10:00+05:30,27,22,40,28
2019-09-23 23:20:00+05:30,27,20,28,27
2019-09-23 23:30:00+05:30,26,19,24,26
2019-09-23 23:40:00+05:30,23,17,23,24
2019-09-23 23:50:00+05:30,20,15,18,20
2019-09-24 00:00:00+05:30,22,17,20,22
2019-09-24 00:10:00+05:30,20,16,18,20
2019-09-24 00:20:00+05:30,16,12,14,16
2019-09-24 00:30:00+05:30,16,12,14,16
2019-09-24 00:40:00+05:30,18,14,16,18
2019-09-24 00:50:00+05:30,18,15,17,18
2019-09-24 01:00:00+05:30,17,14,16,17
2019-09-24 01:10:00+05:30,16,14,15,16
2019-09-24 01:20:00+05:30,15,14,14,15
2019-09-24 01:30:00+05:30,12,11,12,12
2019-09-24 01:40:00+05:30,13,12,13,13
2019-09-24 01:50:00+05:30,13,12,13,13
2019-09-24 02:00:00+05:30,12,11,12,12
2019-09-24 02:10:00+05:30,10,10,10,10
2019-09-24 02:20:00+05:30,10,10,10,10
2019-09-24 02:30:00+05:30,11,10,11,11
2019-09-24 02:40:00+05:30,8,7,8,8
2019-09-24 02:50:00+05:30,9,8,9,9
2019-09-24 03:00:00+05:30,9,8,9,9
2019-09-24 03:10:00+05:30,9,8,9,9
2019-09-24 03:20:00+05:30,8,8,8,8
2019-09-24 03:30:00+05:30,8,8,8,8
2019-09-24 03:40:00+05:30,8,7,8,8
2019-09-24 03:50:00+05:30,8,7,8,8
2019-09-24 04:00:00+05:30,5,5,5,5
2019-09-24 04:10:00+05:30,6,6,6,6
2019-09-24 04:20:00+05:30,7,7,7,7
2019-09-24 04:30:00+05:30,7,7,7,7
2019-09-24 04:40:00+05:30,8,8,9,8
2019-09-24 04:50:00+05:30,9,9,8,9
2019-09-24 05:00:00+05:30,10,10,11,10
2019-09-24 05:10:00+05:30,9,9,9,9
2019-09-24 05:20:00+05:30,10,10,10,10
2019-09-24 05:30:00+05:30,13,13,18,13
2019-09-24 05:40:00+05:30,17,16,24,17
2019-09-24 05:50:00+05:30,22,20,37,22
2019-09-24 06:00:00+05:30,23,22,58,23
2019-09-24 06:10:00+05:30,22,22,36,23
2019-09-24 06:20:00+05:30,25,22,42,25
2019-09-24 06:30:00+05:30,28,25,63,28
2019-09-24 06:40:00+05:30,28,26,75,28
2019-09-24 06:50:00+05:30,31,27,78,31
2019-09-24 07:00:00+05:30,37,33,94,38
2019-09-24 07:10:00+05:30,40,35,72,41
2019-09-24 07:20:00+05:30,39,35,88,40
2019-09-24 07:30:00+05:30,40,36,91,40
2019-09-24 07:40:00+05:30,42,37,81,44
2019-09-24 07:50:00+05:30,40,35,81,41
2019-09-24 08:00:00+05:30,43,33,86,43
2019-09-24 08:10:00+05:30,42,32,82,44
2019-09-24 08:20:00+05:30,45,34,91,45
2019-09-24 08:30:00+05:30,47,37,90,47
2019-09-24 08:40:00+05:30,43,32,68,43
2019-09-24 08:50:00+05:30,44,33,70,44
2019-09-24 09:00:00+05:30,42,32,67,42
2019-09-24 09:10:00+05:30,42,32,63,43
2019-09-24 09:20:00+05:30,41,32,70,41
2019-09-24 09:30:00+05:30,45,35,82,45
2019-09-24 09:40:00+05:30,44,34,57,44
2019-09-24 09:50:00+05:30,45,35,62,46
2019-09-24 10:00:00+05:30,40,34,68,41
2019-09-24 10:10:00+05:30,41,33,62,41
2019-09-24 10:20:00+05:30,40,31,63,40
2019-09-24 10:30:00+05:30,42,33,61,43
2019-09-24 10:40:00+05:30,42,33,70,43
2019-09-24 10:50:00+05:30,41,32,87,41
2019-09-24 11:00:00+05:30,42,33,77,44
2019-09-24 11:10:00+05:30,40,33,62,40
2019-09-24 11:20:00+05:30,38,33,61,38
2019-09-24 11:30:00+05:30,39,33,59,40
2019-09-24 11:40:00+05:30,36,30,51,36
2019-09-24 11:50:00+05:30,35,29,46,35
2019-09-24 12:00:00+05:30,35,31,53,36
2019-09-24 12:10:00+05:30,37,32,57,37
2019-09-24 12:20:00+05:30,38,34,56,40
2019-09-24 12:30:00+05:30,38,33,56,39
2019-09-24 12:40:00+05:30,37,32,50,37
2019-09-24 12:50:00+05:30,37,32,57,38
2019-09-24 13:00:00+05:30,37,33,66,37
2019-09-24 13:10:00+05:30,36,32,68,36
2019-09-24 13:20:00+05:30,37,32,57,39
2019-09-24 13:30:00+05:30,35,31,69,36
2019-09-24 13:40:00+05:30,36,32,66,36
2019-09-24 13:50:00+05:30,35,32,66,36
2019-09-24 14:00:00+05:30,35,31,48,36
2019-09-24 14:10:00+05:30,36,32,56,36
2019-09-24 14:20:00+05:30,36,32,68,36
2019-09-24 14:30:00+05:30,37,33,62,37
2019-09-24 14:40:00+05:30,38,34,65,39
2019-09-24 14:50:00+05:30,38,35,57,38
2019-09-24 15:00:00+05:30,36,33,46,37
2019-09-24 15:10:00+05:30,37,33,47,37
2019-09-24 15:20:00+05:30,38,34,46,39
2019-09-24 15:30:00+05:30,40,36,48,40
2019-09-24 15:40:00+05:30,37,33,63,37
2019-09-24 15:50:00+05:30,37,33,53,38
2019-09-24 16:00:00+05:30,36,34,55,37
2019-09-24 16:10:00+05:30,38,34,56,38
2019-09-24 16:20:00+05:30,39,34,71,39
2019-09-24 16:30:00+05:30,41,35,79,42
2019-09-24 16:40:00+05:30,42,35,81,42
2019-09-24 16:50:00+05:30,40,34,73,41
2019-09-24 17:00:00+05:30,39,33,59,41
2019-09-24 17:10:00+05:30,40,35,63,41
2019-09-24 17:20:00+05:30,36,30,63,36
2019-09-24 17:30:00+05:30,39,33,60,39
2019-09-24 17:40:00+05:30,38,32,56,38
2019-09-24 17:50:00+05:30,35,31,53,35
2019-09-24 18:00:00+05:30,35,30,48,35
2019-09-24 18:10:00+05:30,38,32,44,40
2019-09-24 18:20:00+05:30,35,32,48,35
2019-09-24 18:30:00+05:30,38,32,49,39
2019-09-24 18:40:00+05:30,37,31,49,37
2019-09-24 18:50:00+05:30,38,32,53,38
2019-09-24 19:00:00+05:30,34,31,44,34
2019-09-24 19:10:00+05:30,34,31,51,34
2019-09-24 19:20:00+05:30,33,29,53,33
2019-09-24 19:30:00+05:30,35,31,43,35
2019-09-24 19:40:00+05:30,35,32,46,35
2019-09-24 19:50:00+05:30,32,30,40,32
2019-09-24 20:00:00+05:30,34,32,52,34
2019-09-24 20:10:00+05:30,33,30,61,33
2019-09-24 20:20:00+05:30,34,30,54,35
2019-09-24 20:30:00+05:30,34,30,61,34
2019-09-24 20:40:00+05:30,35,33,72,36
2019-09-24 20:50:00+05:30,34,33,61,34
2019-09-24 21:00:00+05:30,36,34,56,37
2019-09-24 21:10:00+05:30,35,32,57,35
2019-09-24 21:20:00+05:30,32,30,39,32
2019-09-24 21:30:00+05:30,27,25,28,27
2019-09-24 21:40:00+05:30,30,26,35,30
2019-09-24 21:50:00+05:30,31,27,45,32
2019-09-24 22:00:00+05:30,32,29,52,32
2019-09-24 22:10:00+05:30,29,25,33,30
2019-09-24 22:20:00+05:30,27,24,35,27
2019-09-24 22:30:00+05:30,23,22,30,23
2019-09-24 22:40:00+05:30,24,23,29,24
2019-09-24 22:50:00+05:30,24,22,24,24
2019-09-24 23:00:00+05:30,24,22,28,24
2019-09-24 23:10:00+05:30,22,20,25,22
2019-09-24 23:20:00+05:30,23,21,29,23
2019-09-24 23:30:00+05:30,21,19,29,21
2019-09-24 23:40:00+05:30,18,16,17,18
2019-09-24 23:50:00+05:30,18,16,17,18
2019-09-25 00:00:00+05:30,18,16,17,18
2019-09-25 00:10:00+05:30,18,16,17,18
2019-09-25 00:20:00+05:30,17,15,16,17
2019-09-25 00:30:00+05:30,17,15,16,17
2019-09-25 00:40:00+05:30,16,15,15,16
2019-09-25 00:50:00+05:30,17,16,16,17
2019-09-25 01:00:00+05:30,17,16,16,17
2019-09-25 01:10:00+05:30,16,15,15,16
2019-09-25 01:20:00+05:30,15,14,14,15
2019-09-25 01:30:00+05:30,14,13,13,14
2019-09-25 01:40:00+05:30,13,12,12,13
2019-09-25 01:50:00+05:30,12,11,12,12
2019-09-25 02:00:00+05:30,14,13,13,14
2019-09-25 02:10:00+05:30,13,12,12,13
2019-09-25 02:20:00+05:30,12,11,12,12
2019-09-25 02:30:00+05:30,11,11,11,11
2019-09-25 02:40:00+05:30,9,9,9,9
2019-09-25 02:50:00+05:30,9,9,9,9
2019-09-25 03:00:00+05:30,9,9,9,9
2019-09-25 03:10:00+05:30,9,9,9,9
2019-09-25 03:20:00+05:30,9,9,9,9
2019-09-25 03:30:00+05:30,9,9,9,9
2019-09-25 03:40:00+05:30,9,9,9,9
2019-09-25 03:50:00+05:30,7,7,7,7
2019-09-25 04:00:00+05:30,7,7,7,7
2019-09-25 04:10:00+05:30,6,6,6,6
2019-09-25 04:20:00+05:30,6,6,6,6
2019-09-25 04:30:00+05:30,7,7,7,7
2019-09-25 04:40:00+05:30,5,5,5,5
2019-09-25 04:50:00+05:30,7,7,6,7
2019-09-25 05:00:00+05:30,8,8,7,8
2019-09-25 05:10:00+05:30,9,9,10,9
2019-09-25 05:20:00+05:30,15,14,14,15
2019-09-25 05:30:00+05:30,15,14,23,15
2019-09-25 05:40:00+05:30,16,15,24,16
2019-09-25 05:50:00+05:30,19,18,28,20
2019-09-25 06:00:00+05:30,22,21,46,22
2019-09-25 06:10:00+05:30,23,22,39,23
2019-09-25 06:20:00+05:30,24,22,39,26
2019-09-25 06:30:00+05:30,29,26,54,29
2019-09-25 06:40:00+05:30,35,30,87,35
2019-09-25 06:50:00+05:30,33,28,103,33
2019-09-25 07:00:00+05:30,40,37,108,41
2019-09-25 07:10:00+05:30,43,40,101,44
2019-09-25 07:20:00+05:30,37,35,102,37
2019-09-25 07:30:00+05:30,38,35,86,39
2019-09-25 07:40:00+05:30,46,41,101,46
2019-09-25 07:50:00+05:30,49,43,103,49
2019-09-25 08:00:00+05:30,48,41,111,49
2019-09-25 08:10:00+05:30,47,41,92,49
2019-09-25 08:20:00+05:30,47,41,109,49
2019-09-25 08:30:00+05:30,40,35,39,40
2019-09-25 08:40:00+05:30,36,28,61,36
2019-09-25 08:50:00+05:30,39,31,104,41
2019-09-25 09:00:00+05:30,40,31,113,40
2019-09-25 09:10:00+05:30,42,34,111,44
2019-09-25 09:20:00+05:30,43,35,97,43
2019-09-25 09:30:00+05:30,47,39,96,47
2019-09-25 09:40:00+05:30,44,37,104,44
2019-09-25 09:50:00+05:30,46,37,80,46
2019-09-25 10:00:00+05:30,41,34,81,42
2019-09-25 10:10:00+05:30,45,37,83,45
2019-09-25 10:20:00+05:30,41,34,83,42
2019-09-25 10:30:00+05:30,39,33,69,39
2019-09-25 10:40:00+05:30,38,32,57,38
2019-09-25 10:50:00+05:30,34,28,54,35
2019-09-25 11:00:00+05:30,35,30,57,35
2019-09-25 11:10:00+05:30,37,32,70,37
2019-09-25 11:20:00+05:30,35,30,81,35
2019-09-25 11:30:00+05:30,35,29,70,36
2019-09-25 11:40:00+05:30,35,28,70,36
2019-09-25 11:50:00+05:30,34,27,57,34
2019-09-25 12:00:00+05:30,35,28,60,35
2019-09-25 12:10:00+05:30,36,27,55,36
2019-09-25 12:20:00+05:30,35,28,57,35
2019-09-25 12:30:00+05:30,36,29,52,37
2019-09-25 12:40:00+05:30,38,31,60,38
2019-09-25 12:50:00+05:30,40,34,61,40
2019-09-25 13:00:00+05:30,40,34,74,40
2019-09-25 13:10:00+05:30,40,35,74,40
2019-09-25 13:20:00+05:30,40,35,75,40
2019-09-25 13:30:00+05:30,37,31,60,37
2019-09-25 13:40:00+05:30,37,31,48,38
2019-09-25 13:50:00+05:30,38,33,62,39
2019-09-25 14:00:00+05:30,39,33,70,39
2019-09-25 14:10:00+05:30,39,34,70,39
2019-09-25 14:20:00+05:30,35,29,56,35
2019-09-25 14:30:00+05:30,34,29,48,35
2019-09-25 14:40:00+05:30,36,32,52,37
2019-09-25 14:50:00+05:30,34,29,43,34
2019-09-25 15:00:00+05:30,35,30,52,35
2019-09-25 15:10:00+05:30,34,29,54,34
2019-09-25 15:20:00+05:30,33,28,52,34
2019-09-25 15:30:00+05:30,37,32,56,37
2019-09-25 15:40:00+05:30,38,32,66,38
2019-09-25 15:50:00+05:30,33,27,53,33
2019-09-25 16:00:00+05:30,31,25,52,32
2019-09-25 16:10:00+05:30,36,30,62,36
2019-09-25 16:20:00+05:30,36,31,56,37
2019-09-25 16:30:00+05:30,36,31,59,36
2019-09-25 16:40:00+05:30,35,30,66,35
2019-09-25 16:50:00+05:30,37,31,67,38
2019-09-25 17:00:00+05:30,33,30,54,33
2019-09-25 17:10:00+05:30,32,30,58,32
2019-09-25 17:20:00+05:30,34,31,57,34
2019-09-25 17:30:00+05:30,36,32,59,37
2019-09-25 17:40:00+05:30,37,33,41,37
2019-09-25 17:50:00+05:30,37,34,45,37
2019-09-25 18:00:00+05:30,38,34,56,38
2019-09-25 18:10:00+05:30,40,34,75,40
2019-09-25 18:20:00+05:30,40,34,74,42
2019-09-25 18:30:00+05:30,40,35,69,40
2019-09-25 18:40:00+05:30,41,36,70,41
2019-09-25 18:50:00+05:30,41,37,76,41
2019-09-25 19:00:00+05:30,38,34,64,38
2019-09-25 19:10:00+05:30,39,33,69,39
2019-09-25 19:20:00+05:30,35,30,75,35
2019-09-25 19:30:00+05:30,39,34,66,40
2019-09-25 19:40:00+05:30,37,32,48,39
2019-09-25 19:50:00+05:30,37,32,61,38
2019-09-25 20:00:00+05:30,38,33,59,39
2019-09-25 20:10:00+05:30,41,35,63,41
2019-09-25 20:20:00+05:30,40,33,60,40
2019-09-25 20:30:00+05:30,36,31,60,36
2019-09-25 20:40:00+05:30,34,31,59,34
2019-09-25 20:50:00+05:30,36,33,65,36
2019-09-25 21:00:00+05:30,35,29,67,35
2019-09-25 21:10:00+05:30,35,29,59,35
2019-09-25 21:20:00+05:30,33,29,47,34
2019-09-25 21:30:00+05:30,33,29,41,33
2019-09-25 21:40:00+05:30,34,30,51,35
2019-09-25 21:50:00+05:30,33,28,43,34
2019-09-25 22:00:00+05:30,38,33,43,38
2019-09-25 22:10:00+05:30,36,31,60,36
2019-09-25 22:20:00+05:30,37,32,61,37
2019-09-25 22:30:00+05:30,35,31,53,35
2019-09-25 22:40:00+05:30,34,30,48,34
2019-09-25 22:50:00+05:30,34,29,51,34
2019-09-25 23:00:00+05:30,32,27,34,32
2019-09-25 23:10:00+05:30,31,27,33,31
2019-09-25 23:20:00+05:30,31,25,30,31
2019-09-25 23:30:00+05:30,32,26,31,32
2019-09-25 23:40:00+05:30,31,25,33,32
2019-09-25 23:50:00+05:30,29,23,29,29
2019-09-26 00:00:00+05:30,26,21,25,26
2019-09-26 00:10:00+05:30,29,22,28,29
2019-09-26 00:20:00+05:30,24,19,24,24
2019-09-26 00:30:00+05:30,22,18,22,22
2019-09-26 00:40:00+05:30,19,17,20,19
2019-09-26 00:50:00+05:30,16,16,17,16
2019-09-26 01:00:00+05:30,16,16,16,16
2019-09-26 01:10:00+05:30,14,14,14,14
2019-09-26 01:20:00+05:30,14,14,14,14
2019-09-26 01:30:00+05:30,14,14,14,14
2019-09-26 01:40:00+05:30,14,14,14,14
2019-09-26 01:50:00+05:30,14,14,14,14
2019-09-26 02:00:00+05:30,15,15,15,15
2019-09-26 02:10:00+05:30,13,13,13,13
2019-09-26 02:20:00+05:30,11,11,11,11
2019-09-26 02:30:00+05:30,12,12,12,12
2019-09-26 02:40:00+05:30,11,11,11,11
2019-09-26 02:50:00+05:30,8,8,8,8
2019-09-26 03:00:00+05:30,8,8,8,8
2019-09-26 03:10:00+05:30,7,7,7,7
2019-09-26 03:20:00+05:30,7,7,7,7
2019-09-26 03:30:00+05:30,7,7,7,7
2019-09-26 03:40:00+05:30,7,7,7,7
2019-09-26 03:50:00+05:30,7,7,7,7
2019-09-26 04:00:00+05:30,10,10,10,10
2019-09-26 04:10:00+05:30,8,8,7,8
2019-09-26 04:20:00+05:30,8,8,8,8
2019-09-26 04:30:00+05:30,9,9,9,9
2019-09-26 04:40:00+05:30,11,11,9,11
2019-09-26 04:50:00+05:30,12,12,10,12
2019-09-26 05:00:00+05:30,15,15,14,15
2019-09-26 05:10:00+05:30,16,16,17,16
2019-09-26 05:20:00+05:30,16,16,16,16
2019-09-26 05:30:00+05:30,19,19,24,19
2019-09-26 05:40:00+05:30,21,20,35,21
2019-09-26 05:50:00+05:30,25,23,36,25
2019-09-26 06:00:00+05:30,27,24,45,27
2019-09-26 06:10:00+05:30,29,26,62,29
2019-09-26 06:20:00+05:30,30,26,66,30
2019-09-26 06:30:00+05:30,32,29,72,33
2019-09-26 06:40:00+05:30,34,31,88,34
2019-09-26 06:50:00+05:30,29,28,61,29
2019-09-26 07:00:00+05:30,33,31,84,34
2019-09-26 07:10:00+05:30,36,34,84,37
2019-09-26 07:20:00+05:30,38,36,84,39
2019-09-26 07:30:00+05:30,37,35,73,37
2019-09-26 07:40:00+05:30,38,34,82,39
2019-09-26 07:50:00+05:30,40,33,80,41
2019-09-26 08:00:00+05:30,37,32,76,38
2019-09-26 08:10:00+05:30,36,31,74,36
2019-09-26 08:20:00+05:30,35,29,54,35
2019-09-26 08:30:00+05:30,35,31,56,35
2019-09-26 08:40:00+05:30,39,32,73,39
2019-09-26 08:50:00+05:30,38,33,62,38
2019-09-26 09:00:00+05:30,37,32,58,38
2019-09-26 09:10:00+05:30,36,33,40,36
2019-09-26 09:20:00+05:30,36,33,48,36
2019-09-26 09:30:00+05:30,38,34,58,38
2019-09-26 09:40:00+05:30,36,32,49,36
2019-09-26 09:50:00+05:30,39,35,68,40
2019-09-26 10:00:00+05:30,38,35,66,38
2019-09-26 10:10:00+05:30,37,34,69,38
2019-09-26 10:20:00+05:30,38,35,80,38
2019-09-26 10:30:00+05:30,38,35,78,39
2019-09-26 10:40:00+05:30,37,33,57,38
2019-09-26 10:50:00+05:30,37,32,57,37
2019-09-26 11:00:00+05:30,37,32,53,37
2019-09-26 11:10:00+05:30,33,27,56,33
2019-09-26 11:20:00+05:30,34,29,47,34
2019-09-26 11:30:00+05:30,33,29,46,34
2019-09-26 11:40:00+05:30,36,32,56,36
2019-09-26 11:50:00+05:30,35,31,54,35
2019-09-26 12:00:00+05:30,33,31,41,33
2019-09-26 12:10:00+05:30,33,32,47,34
2019-09-26 12:20:00+05:30,36,34,66,36
2019-09-26 12:30:00+05:30,37,34,66,38
2019-09-26 12:40:00+05:30,36,32,61,36
2019-09-26 12:50:00+05:30,37,32,49,38
2019-09-26 13:00:00+05:30,34,31,47,35
2019-09-26 13:10:00+05:30,31,28,50,31
2019-09-26 13:20:00+05:30,36,32,48,37
2019-09-26 13:30:00+05:30,39,34,57,39
2019-09-26 13:40:00+05:30,42,34,67,44
2019-09-26 13:50:00+05:30,42,34,67,42
2019-09-26 14:00:00+05:30,40,34,71,40
2019-09-26 14:10:00+05:30,40,34,69,41
2019-09-26 14:20:00+05:30,35,30,62,36
2019-09-26 14:30:00+05:30,37,31,60,37
2019-09-26 14:40:00+05:30,39,32,53,39
2019-09-26 14:50:00+05:30,40,33,62,40
2019-09-26 15:00:00+05:30,40,32,61,40
2019-09-26 15:10:00+05:30,44,36,58,45
2019-09-26 15:20:00+05:30,44,35,56,44
2019-09-26 15:30:00+05:30,46,36,69,46
2019-09-26 15:40:00+05:30,42,33,92,42
2019-09-26 15:50:00+05:30,43,35,88,43
2019-09-26 16:00:00+05:30,43,35,76,45
2019-09-26 16:10:00+05:30,44,36,92,44
2019-09-26 16:20:00+05:30,43,37,73,44
2019-09-26 16:30:00+05:30,39,34,80,39
2019-09-26 16:40:00+05:30,42,37,78,43
2019-09-26 16:50:00+05:30,37,31,54,38
2019-09-26 17:00:00+05:30,37,32,49,37
2019-09-26 17:10:00+05:30,36,31,59,37
2019-09-26 17:20:00+05:30,34,30,60,35
2019-09-26 17:30:00+05:30,38,32,54,39
2019-09-26 17:40:00+05:30,40,33,63,41
2019-09-26 17:50:00+05:30,40,34,66,40
2019-09-26 18:00:00+05:30,36,31,50,37
2019-09-26 18:10:00+05:30,37,33,49,37
2019-09-26 18:20:00+05:30,39,33,83,41
2019-09-26 18:30:00+05:30,39,33,67,40
2019-09-26 18:40:00+05:30,41,36,75,41
2019-09-26 18:50:00+05:30,41,35,88,42
2019-09-26 19:00:00+05:30,39,34,75,39
2019-09-26 19:10:00+05:30,35,31,62,36
2019-09-26 19:20:00+05:30,39,32,64,39
2019-09-26 19:30:00+05:30,43,34,74,43
2019-09-26 19:40:00+05:30,42,32,67,43
2019-09-26 19:50:00+05:30,40,30,67,40
2019-09-26 20:00:00+05:30,39,31,68,40
2019-09-26 20:10:00+05:30,36,28,64,36
2019-09-26 20:20:00+05:30,33,28,51,34
2019-09-26 20:30:00+05:30,33,28,50,33
2019-09-26 20:40:00+05:30,33,28,52,33
2019-09-26 20:50:00+05:30,33,29,42,33
2019-09-26 21:00:00+05:30,34,29,35,34
2019-09-26 21:10:00+05:30,31,26,39,31
2019-09-26 21:20:00+05:30,34,29,40,34
2019-09-26 21:30:00+05:30,30,25,34,30
2019-09-26 21:40:00+05:30,30,25,33,30
2019-09-26 21:50:00+05:30,31,26,41,31
2019-09-26 22:00:00+05:30,31,26,41,31
2019-09-26 22:10:00+05:30,30,25,28,30
2019-09-26 22:20:00+05:30,29,24,29,29
2019-09-26 22:30:00+05:30,30,24,38,30
2019-09-26 22:40:00+05:30,30,24,46,32
2019-09-26 22:50:00+05:30,28,21,62,28
2019-09-26 23:00:00+05:30,28,23,50,29
2019-09-26 23:10:00+05:30,28,22,51,28
2019-09-26 23:20:00+05:30,29,22,42,30
2019-09-26 23:30:00+05:30,26,20,31,27
2019-09-26 23:40:00+05:30,23,18,32,23
2019-09-26 23:50:00+05:30,23,18,34,23
2019-09-27 00:00:00+05:30,21,17,28,21
2019-09-27 00:10:00+05:30,21,16,22,21
2019-09-27 00:20:00+05:30,21,17,19,21
2019-09-27 00:30:00+05:30,16,14,17,16
2019-09-27 00:40:00+05:30,17,15,17,17
2019-09-27 00:50:00+05:30,18,16,18,18
2019-09-27 01:00:00+05:30,18,16,18,18
2019-09-27 01:10:00+05:30,18,16,18,18
2019-09-27 01:20:00+05:30,16,14,16,16
2019-09-27 01:30:00+05:30,15,13,15,15
2019-09-27 01:40:00+05:30,15,13,15,15
2019-09-27 01:50:00+05:30,16,14,16,16
2019-09-27 02:00:00+05:30,11,9,11,11
2019-09-27 02:10:00+05:30,8,6,8,8
2019-09-27 02:20:00+05:30,6,6,6,6
2019-09-27 02:30:00+05:30,11,10,11,11
2019-09-27 02:40:00+05:30,11,10,11,11
2019-09-27 02:50:00+05:30,10,9,10,10
2019-09-27 03:00:00+05:30,12,11,12,12
2019-09-27 03:10:00+05:30,12,11,12,12
2019-09-27 03:20:00+05:30,12,11,12,12
2019-09-27 03:30:00+05:30,12,11,12,12
2019-09-27 03:40:00+05:30,12,11,12,12
2019-09-27 03:50:00+05:30,11,11,11,11
2019-09-27 04:00:00+05:30,6,6,6,6
2019-09-27 04:10:00+05:30,7,7,6,7
2019-09-27 04:20:00+05:30,7,7,6,7
2019-09-27 04:30:00+05:30,5,5,5,5
2019-09-27 04:40:00+05:30,0,0,0,0
2019-09-27 04:50:00+05:30,0,0,0,0
2019-09-27 05:00:00+05:30,0,0,0,0
2019-09-27 05:10:00+05:30,0,0,0,0
2019-09-27 05:20:00+05:30,0,0,0,0
2019-09-27 05:30:00+05:30,0,0,0,0
2019-09-27 05:40:00+05:30,0,0,0,0
2019-09-27 05:50:00+05:30,0,0,0,0
2019-09-27 06:00:00+05:30,0,0,0,0
2019-09-27 06:10:00+05:30,0,0,0,0
2019-09-27 06:20:00+05:30,0,0,0,0
2019-09-27 06:30:00+05:30,0,0,0,0
2019-09-27 06:40:00+05:30,0,0,0,0
2019-09-27 06:50:00+05:30,0,0,0,0
2019-09-27 07:00:00+05:30,0,0,0,0
2019-09-27 07:10:00+05:30,0,0,0,0
2019-09-27 07:20:00+05:30,0,0,0,0
2019-09-27 07:30:00+05:30,0,0,0,0
2019-09-27 07:40:00+05:30,0,0,0,0
2019-09-27 07:50:00+05:30,0,0,0,0
2019-09-27 08:00:00+05:30,0,0,0,0
2019-09-27 08:10:00+05:30,0,0,0,0
2019-09-27 08:20:00+05:30,0,0,0,0
2019-09-27 08:30:00+05:30,0,0,0,0
2019-09-27 08:40:00+05:30,0,0,0,0
2019-09-27 08:50:00+05:30,0,0,0,0
2019-09-27 09:00:00+05:30,0,0,0,0
2019-09-27 09:10:00+05:30,0,0,0,0
2019-09-27 09:20:00+05:30,0,0,0,0
2019-09-27 09:30:00+05:30,0,0,0,0
2019-09-27 09:40:00+05:30,0,0,0,0
2019-09-27 09:50:00+05:30,0,0,0,0
2019-09-27 10:00:00+05:30,0,0,0,0
2019-09-27 10:10:00+05:30,0,0,0,0
2019-09-27 10:20:00+05:30,42,32,79,43
2019-09-27 10:30:00+05:30,50,38,96,50
2019-09-27 10:40:00+05:30,42,33,96,42
2019-09-27 10:50:00+05:30,43,36,137,43
2019-09-27 11:00:00+05:30,39,33,117,40
2019-09-27 11:10:00+05:30,45,37,83,47
2019-09-27 11:20:00+05:30,37,32,57,37
2019-09-27 11:30:00+05:30,0,0,0,0
2019-09-27 11:40:00+05:30,0,0,0,0
2019-09-27 11:50:00+05:30,0,0,0,0
2019-09-27 12:00:00+05:30,42,36,59,42
2019-09-27 12:10:00+05:30,39,35,92,39
2019-09-27 12:20:00+05:30,41,36,89,41
2019-09-27 12:30:00+05:30,43,38,81,45
2019-09-27 12:40:00+05:30,40,36,79,41
2019-09-27 12:50:00+05:30,39,34,81,39
2019-09-27 13:00:00+05:30,42,37,90,42
2019-09-27 13:10:00+05:30,39,35,71,39
2019-09-27 13:20:00+05:30,37,32,69,38
2019-09-27 13:30:00+05:30,32,31,55,33
2019-09-27 13:40:00+05:30,35,33,56,36
2019-09-27 13:50:00+05:30,36,32,66,36
2019-09-27 14:00:00+05:30,35,31,67,35
2019-09-27 14:10:00+05:30,36,31,63,38
2019-09-27 14:20:00+05:30,32,28,58,32
2019-09-27 14:30:00+05:30,34,29,43,34
2019-09-27 14:40:00+05:30,34,29,44,34
2019-09-27 14:50:00+05:30,34,28,47,35
2019-09-27 15:00:00+05:30,33,26,43,33
2019-09-27 15:10:00+05:30,33,27,45,33
2019-09-27 15:20:00+05:30,41,35,67,42
2019-09-27 15:30:00+05:30,43,36,66,43
2019-09-27 15:40:00+05:30,46,37,74,46
2019-09-27 15:50:00+05:30,43,34,71,43
2019-09-27 16:00:00+05:30,42,34,59,42
2019-09-27 16:10:00+05:30,41,33,53,41
2019-09-27 16:20:00+05:30,41,34,51,41
2019-09-27 16:30:00+05:30,45,37,70,46
2019-09-27 16:40:00+05:30,44,36,71,44
2019-09-27 16:50:00+05:30,42,35,76,42
2019-09-27 17:00:00+05:30,44,36,72,45
2019-09-27 17:10:00+05:30,44,37,75,44
2019-09-27 17:20:00+05:30,48,40,84,49
2019-09-27 17:30:00+05:30,46,37,81,46
2019-09-27 17:40:00+05:30,44,37,78,45
2019-09-27 17:50:00+05:30,42,36,71,42
2019-09-27 18:00:00+05:30,42,36,72,42
2019-09-27 18:10:00+05:30,41,36,75,41
2019-09-27 18:20:00+05:30,43,38,69,44
2019-09-27 18:30:00+05:30,43,37,62,43
2019-09-27 18:40:00+05:30,49,41,77,49
2019-09-27 18:50:00+05:30,48,38,76,48
2019-09-27 19:00:00+05:30,47,39,73,47
2019-09-27 19:10:00+05:30,44,38,66,44
2019-09-27 19:20:00+05:30,46,40,63,46
2019-09-27 19:30:00+05:30,47,40,84,49
2019-09-27 19:40:00+05:30,49,40,105,49
2019-09-27 19:50:00+05:30,51,40,89,52
2019-09-27 20:00:00+05:30,48,37,70,49
2019-09-27 20:10:00+05:30,51,38,79,51
2019-09-27 20:20:00+05:30,50,37,72,50
2019-09-27 20:30:00+05:30,48,36,60,50
2019-09-27 20:40:00+05:30,47,36,66,48
2019-09-27 20:50:00+05:30,46,35,65,46
2019-09-27 21:00:00+05:30,48,35,63,49
2019-09-27 21:10:00+05:30,44,34,73,44
2019-09-27 21:20:00+05:30,43,34,66,43
2019-09-27 21:30:00+05:30,42,35,56,42
2019-09-27 21:40:00+05:30,38,33,52,38
2019-09-27 21:50:00+05:30,37,32,50,37
2019-09-27 22:00:00+05:30,38,32,54,38
2019-09-27 22:10:00+05:30,34,31,37,34
2019-09-27 22:20:00+05:30,33,30,38,33
2019-09-27 22:30:00+05:30,38,34,55,39
2019-09-27 22:40:00+05:30,38,32,59,38
2019-09-27 22:50:00+05:30,41,34,63,41
2019-09-27 23:00:00+05:30,40,33,77,41
2019-09-27 23:10:00+05:30,38,31,64,38
2019-09-27 23:20:00+05:30,33,28,55,33
2019-09-27 23:30:00+05:30,32,27,60,32
2019-09-27 23:40:00+05:30,32,28,41,33
2019-09-27 23:50:00+05:30,32,28,30,32
2019-09-28 00:00:00+05:30,30,25,38,30
2019-09-28 00:10:00+05:30,30,25,46,30
2019-09-28 00:20:00+05:30,26,23,36,26
2019-09-28 00:30:00+05:30,25,23,38,25
2019-09-28 00:40:00+05:30,22,20,39,22
2019-09-28 00:50:00+05:30,22,20,23,22
2019-09-28 01:00:00+05:30,20,18,20,20
2019-09-28 01:10:00+05:30,20,18,19,20
2019-09-28 01:20:00+05:30,19,17,18,19
2019-09-28 01:30:00+05:30,19,17,18,19
2019-09-28 01:40:00+05:30,17,15,16,17
2019-09-28 01:50:00+05:30,17,15,16,17
2019-09-28 02:00:00+05:30,17,15,16,17
2019-09-28 02:10:00+05:30,16,14,15,16
2019-09-28 02:20:00+05:30,15,13,14,15
2019-09-28 02:30:00+05:30,13,11,12,13
2019-09-28 02:40:00+05:30,14,12,13,14
2019-09-28 02:50:00+05:30,14,12,15,14
2019-09-28 03:00:00+05:30,13,11,13,13
2019-09-28 03:10:00+05:30,11,9,10,11
2019-09-28 03:20:00+05:30,11,9,10,11
2019-09-28 03:30:00+05:30,11,9,10,11
2019-09-28 03:40:00+05:30,12,10,11,12
2019-09-28 03:50:00+05:30,13,11,12,13
2019-09-28 04:00:00+05:30,8,8,8,8